Regional Weather Roundup
Issued by NWS

Home | Current Version | Previous Version | Graphics & Text | Print | Product List | Glossary Off
Versions: 1 2 3 4 5 6 7 8 9 10 11 12 13 14 15 16 17 18 19 20 21 22 23 24 25 26 27 28 29 30 31 32 33 34 35 36 37 38 39 40 41 42 43 44 45 46 47 48 49 50

000
ASUS43 KTOP 230859
RWRKS

WEATHER ROUNDUP FOR KANSAS
NATIONAL WEATHER SERVICE GOODLAND KS
400 AM CDT WED AUG 23 2017

NOTE:  "FAIR" INDICATES FEW OR NO CLOUDS BELOW 12,000 FEET WITH NO
SIGNIFICANT WEATHER AND/OR OBSTRUCTIONS TO VISIBILITY.

KSZ001>006-013>018-027>032-041>047-231000-
NORTHWEST KANSAS

CITY           SKY/WX    TMP DP  RH WIND       PRES   REMARKS
GOODLAND       CLEAR     57  48  72 S12       30.22R
HAYS           CLEAR     56  51  84 E3        30.20S
HILL CITY      CLEAR     54  51  90 CALM      30.20F
RUSSELL        CLEAR     56  49  77 SE5       30.19S
$$

KSZ061>065-074>080-084>089-231000-
SOUTHWEST KANSAS

CITY           SKY/WX    TMP DP  RH WIND       PRES   REMARKS
DODGE CITY       N/A    N/A N/A N/A MISG      30.20F
ELKHART          N/A     58  58 100 SE5         N/A
GARDEN CITY    CLEAR     58  50  75 SE10      30.21S
GREAT BEND     CLEAR     59  50  72 E5        30.20F
LIBERAL        PTCLDY    64  56  75 E10       30.21S
$$

KSZ066>073-081>083-090>101-231000-
SOUTHEAST KANSAS

CITY           SKY/WX    TMP DP  RH WIND       PRES   REMARKS
CHANUTE        PTCLDY    62  55  77 NE6       30.14S
COFFEYVILLE    PTCLDY    63  59  87 N5        30.12R
HUTCHINSON     PTCLDY    57  51  80 NE3       30.18S
MEDICINE LODGE   N/A     60  52  74 CALM      30.17S
NEWTON         CLEAR     61  52  72 NE7       30.18F
PARSONS        CLEAR     62  57  83 CALM      30.14R
WICHITA INTL   CLEAR     63  55  75 NE7       30.16S
WICHITA JABRA  CLEAR     57  56  96 N7        30.16S
WINFIELD       CLEAR     63  55  75 NE6       30.16R
$$

KSZ007>012-019>026-033>040-048>060-102>105-231000-
NORTHEAST KANSAS

CITY           SKY/WX    TMP DP  RH WIND       PRES   REMARKS
CONCORDIA      CLEAR     55  52  89 CALM      30.19F
EMPORIA        CLEAR     57  54  89 NW3       30.17R
LAWRENCE       CLEAR     57  55  93 CALM      30.17R
MANHATTAN      PTCLDY    54  53  97 CALM      30.18S
OLATHE IND     CLEAR     56  53  90 N6        30.17S
OLATHE EXE     CLEAR     60  54  80 N5        30.16S
SALINA         CLEAR     60  51  72 SW3       30.20R
TOPEKA BILLARD CLEAR     57  55  93 CALM      30.17S
TOPEKA FORBES  CLEAR     57  54  89 N3        30.17S
$$



USA.gov is the U.S. government's official web portal to all federal, state and local government web resources and services.